Wind_Speed
18 17 16 16 15 15 15 15 15 14 14 14 14 13 13 13 13 13 13 13 13 13 13 12 12 12 13 13 14 14 14 14 14 14 14 13 14 14 14 13 13 12 12
19 19 18 17 16 16 16 16 16 16 14 15 15 14 14 14 14 14 14 14 14 14 14 13 14 14 13 14 14 14 15 15 16 16 15 15 15 15 15 15 15 15 14
19 19 19 17 17 17 16 17 16 16 16 16 16 16 15 15 15 15 15 15 15 15 15 15 16 15 15 15 15 15 15 16 16 17 17 16 16 16 16 17 17 17 16
20 19 19 19 18 18 18 17 17 16 16 16 16 16 16 16 16 17 16 16 15 15 15 16 17 17 16 16 17 17 18 18 17 18 19 18 18 17 17 18 18 17 17
20 19 20 20 19 18 18 18 19 18 17 17 16 16 16 17 17 17 17 17 16 16 16 17 17 17 18 17 18 19 19 19 18 18 19 19 19 20 19 19 19 18 19
20 20 20 19 20 20 19 19 20 20 19 19 18 18 18 18 18 18 18 18 17 17 18 17 18 18 18 18 19 19 19 19 19 19 20 20 20 20 21 21 20 20 20
21 22 22 21 21 21 20 20 20 20 20 20 20 20 20 20 20 19 19 19 19 19 19 19 19 18 18 18 19 19 20 19 20 20 20 21 21 21 21 21 21 21 21
22 23 22 22 22 21 21 21 21 22 22 22 22 22 22 21 21 21 21 21 20 21 21 21 21 20 19 19 19 20 20 20 20 21 21 21 22 22 22 22 22 22 21
22 23 23 22 22 22 22 22 22 23 23 23 23 23 22 22 22 22 22 22 22 22 22 22 22 21 21 20 21 21 21 21 21 22 22 22 22 23 23 24 24 23 23
22 23 23 23 23 22 22 23 24 24 24 24 24 24 24 24 24 24 23 23 22 23 23 23 22 21 21 21 21 21 21 22 22 22 23 23 24 24 24 24 24 24 24
24 25 24 24 24 24 24 24 24 25 25 25 24 24 25 25 25 24 24 23 23 23 23 22 22 22 21 21 22 22 21 21 22 23 23 24 24 24 25 25 26 25 25
25 26 25 26 25 25 25 24 24 24 25 25 25 25 24 24 24 24 24 23 23 23 23 22 22 22 22 22 22 22 22 22 22 23 24 24 25 25 25 26 26 26 26
26 26 26 26 26 25 25 25 24 24 24 24 25 25 25 24 24 25 25 24 24 24 23 24 23 23 23 22 22 21 21 22 23 23 24 24 25 25 25 26 26 27 27
27 26 26 26 25 25 25 24 25 25 25 25 25 25 25 25 25 26 25 24 24 24 25 25 24 24 24 23 22 22 22 23 23 24 24 25 25 25 26 26 27 27 27
26 26 25 25 25 25 25 25 25 25 25 25 26 26 26 26 26 27 26 25 25 24 24 24 24 24 23 23 23 23 23 23 24 24 25 25 25 25 26 27 27 27 27
25 25 26 25 26 25 25 25 25 25 26 26 25 26 27 27 27 27 26 26 25 24 25 25 25 24 24 24 24 24 23 23 23 24 24 25 26 25 26 26 27 27 28
25 25 26 25 26 26 25 25 25 25 25 25 26 26 27 27 27 27 26 26 25 25 25 26 26 25 25 25 25 24 24 24 24 24 23 24 25 25 25 25 26 27 27
25 26 25 26 26 25 25 25 24 25 25 25 25 26 26 26 27 27 26 26 26 26 26 26 26 26 26 26 26 26 26 25 25 24 24 24 24 25 25 25 25 26 26
25 25 25 25 25 25 25 25 26 26 26 26 25 25 26 26 26 26 26 27 26 26 26 26 26 26 26 26 26 26 26 26 25 24 24 24 24 24 25 25 26 26 26
24 24 24 25 25 25 25 25 25 25 26 26 26 26 26 27 26 27 27 27 27 27 27 27 27 26 26 26 26 26 25 25 24 24 24 24 25 25 26 26 26 26 26
24 24 24 23 24 24 24 24 24 24 25 25 26 26 26 27 27 27 27 27 27 27 27 27 27 26 25 24 24 24 24 24 24 24 25 25 25 25 26 26 26 26 26
24 24 24 23 23 23 24 24 24 24 24 25 25 25 26 27 27 27 27 27 27 27 27 27 26 25 25 24 24 24 24 24 25 24 24 24 25 26 26 26 26 26 26
23 23 23 23 24 24 24 25 25 25 25 25 25 25 26 27 27 27 27 27 27 26 27 26 25 25 25 25 25 24 24 25 25 25 25 25 25 25 25 26 26 26 26
25 24 24 24 24 24 24 24 24 25 25 25 25 26 26 26 26 27 27 27 27 26 26 26 25 26 26 25 25 25 26 26 26 26 26 26 26 25 26 26 26 26 26
25 24 24 24 24 24 24 24 24 25 25 26 26 25 25 25 25 25 26 26 25 24 24 25 24 24 24 24 24 25 25 26 26 26 26 26 26 26 25 25 26 25 25
24 24 24 25 25 25 25 25 25 25 25 25 25 24 24 24 24 24 24 25 24 24 24 24 24 24 24 24 24 24 24 25 25 26 26 26 25 25 25 25 25 24 24
Wind_Direction
284 283 283 280 281 281 282 282 279 278 280 281 280 281 287 291 294 294 293 296 300 298 295 291 288 282 276 276 269 267 270 268 269 269 272 274 270 272 267 265 266 268 269
281 282 281 281 281 279 276 277 278 276 277 277 278 281 286 291 292 292 293 295 296 296 295 293 290 289 280 277 271 269 271 270 269 268 270 270 267 267 267 266 265 267 268
278 279 281 279 278 276 273 275 274 276 276 275 277 281 285 289 290 292 292 293 294 293 292 291 289 288 283 278 273 271 273 273 271 267 267 269 267 264 265 267 267 267 268
275 276 278 279 277 274 273 271 271 274 272 271 274 280 283 286 289 291 291 291 292 294 293 290 287 285 283 280 273 269 270 270 271 269 266 266 269 267 267 267 268 267 268
273 273 274 275 277 274 271 269 267 269 268 269 274 280 283 285 287 289 292 291 291 293 294 293 290 285 284 282 278 272 271 270 269 267 266 266 269 268 268 269 268 267 267
273 273 272 274 275 273 270 269 267 268 268 269 273 278 282 284 286 288 291 291 290 291 293 292 291 287 285 282 280 276 273 271 269 266 266 268 269 269 270 269 271 271 270
272 273 274 273 274 272 271 269 268 268 269 269 271 275 279 282 285 288 290 291 291 291 291 291 290 289 286 282 279 277 271 270 269 267 266 268 269 269 270 269 271 271 273
271 273 275 275 274 271 269 268 268 267 267 267 270 272 276 281 284 288 290 290 290 290 289 289 287 286 286 283 281 278 272 269 269 268 267 269 269 269 269 269 269 272 273
270 271 273 274 272 272 270 269 268 267 266 265 268 271 275 279 283 287 289 288 289 289 289 288 287 285 284 283 281 279 275 271 269 270 270 270 269 269 270 270 270 272 273
272 271 272 273 273 273 272 270 267 267 268 268 269 270 273 276 279 284 286 287 287 289 290 289 286 284 284 283 282 279 276 272 271 270 270 270 270 269 269 268 269 272 274
272 271 272 273 273 275 273 270 268 268 268 268 268 270 271 273 276 280 282 284 285 287 290 289 285 284 284 283 283 279 277 274 271 270 271 271 270 269 269 269 269 271 273
276 275 273 272 273 273 273 271 270 269 268 268 268 269 271 272 275 277 278 281 283 285 288 288 287 287 285 284 284 281 278 276 274 274 273 273 272 270 269 269 270 271 272
275 276 274 271 272 271 271 270 269 268 267 268 268 269 270 271 271 275 276 277 280 283 287 289 287 288 286 285 284 282 279 277 276 275 273 273 272 270 269 269 270 271 272
273 274 273 273 272 271 270 270 268 267 267 267 268 268 269 271 272 274 276 276 279 282 285 287 287 287 286 284 283 281 280 279 277 275 275 274 273 272 271 270 271 271 271
272 272 270 271 270 270 271 271 269 267 268 268 268 269 270 270 271 273 274 276 279 281 284 283 284 286 285 284 286 285 280 279 278 276 274 274 274 274 274 272 271 271 271
271 270 269 269 268 270 271 271 269 268 267 266 267 268 269 270 272 273 275 275 277 280 283 283 282 284 287 285 285 284 282 279 279 277 276 274 274 274 275 273 272 272 272
270 270 271 270 270 271 270 269 268 268 267 266 267 268 269 270 272 274 275 275 277 280 282 284 282 282 285 285 285 283 281 279 279 278 278 277 278 276 275 275 274 273 272
270 270 270 271 271 270 270 269 269 268 267 267 268 268 268 270 272 273 274 275 276 279 281 282 283 283 282 282 281 281 280 279 279 279 279 279 279 278 276 276 275 274 273
271 272 271 270 270 269 269 269 269 269 268 268 268 268 267 271 272 273 275 275 275 277 280 280 280 281 281 280 280 280 280 279 278 279 279 279 278 278 276 276 276 275 274
271 272 272 271 271 270 269 271 270 269 269 268 268 268 269 271 272 274 276 276 275 276 277 279 280 280 280 281 281 281 280 280 280 280 280 280 279 278 278 278 278 276 275
270 270 271 272 270 269 269 272 273 272 271 270 269 269 270 272 273 275 276 275 274 276 278 280 280 278 276 279 280 279 279 280 280 281 281 281 278 277 279 279 278 277 276
271 271 272 272 271 269 269 270 272 273 273 272 271 271 273 274 274 275 275 275 274 276 277 278 279 277 277 277 279 280 281 282 281 281 282 282 279 278 280 279 278 276 276
271 271 271 271 272 271 268 267 270 271 272 272 273 273 274 274 274 275 275 275 275 275 276 277 277 276 277 277 278 279 279 281 283 283 283 282 281 279 279 278 276 276 276
270 271 271 271 272 271 269 268 269 269 271 271 272 273 274 275 275 275 275 275 274 275 276 277 276 275 277 279 280 279 280 280 281 282 281 280 280 282 280 280 277 277 277
272 272 273 272 270 270 270 269 269 270 270 271 271 273 275 275 276 275 275 275 274 275 276 277 277 278 280 281 281 281 280 280 281 282 282 281 280 280 282 283 280 279 279
273 273 272 272 271 270 271 272 272 271 272 272 272 272 273 274 275 275 276 275 274 275 275 276 278 278 279 280 281 282 282 282 281 283 284 284 282 281 281 281 281 281 280
Height
5864 5863 5862 5862 5863 5863 5863 5862 5863 5863 5863 5863 5863 5864 5864 5864 5863 5863 5863 5862 5861 5860 5859 5859 5859 5858 5858 5858 5859 5859 5860 5860 5861 5862 5862 5862 5863 5863 5864 5865 5865 5867 5867
5860 5859 5859 5859 5860 5859 5859 5860 5860 5860 5861 5861 5861 5862 5862 5861 5861 5861 5860 5860 5859 5858 5857 5856 5856 5855 5854 5855 5855 5856 5856 5857 5858 5859 5859 5859 5860 5860 5861 5861 5862 5863 5864
5857 5856 5855 5856 5856 5856 5855 5856 5857 5857 5858 5858 5858 5859 5859 5858 5858 5858 5858 5857 5856 5855 5854 5853 5853 5852 5852 5852 5852 5853 5853 5853 5854 5854 5855 5856 5856 5857 5858 5858 5859 5859 5860
5854 5853 5852 5852 5852 5853 5853 5853 5853 5854 5854 5854 5855 5856 5856 5856 5856 5855 5854 5854 5853 5852 5851 5851 5850 5849 5849 5848 5848 5849 5849 5850 5850 5850 5851 5852 5852 5852 5853 5854 5854 5855 5855
5849 5849 5848 5848 5848 5849 5849 5850 5850 5850 5850 5851 5852 5852 5852 5852 5852 5851 5851 5850 5850 5849 5848 5847 5846 5846 5845 5845 5845 5845 5845 5845 5846 5846 5847 5847 5848 5848 5849 5849 5850 5850 5851
5845 5845 5844 5845 5844 5844 5845 5846 5846 5847 5847 5848 5848 5848 5849 5849 5848 5848 5847 5846 5846 5845 5844 5844 5843 5842 5842 5841 5841 5841 5841 5841 5841 5842 5842 5843 5843 5843 5844 5845 5845 5846 5846
5841 5840 5839 5840 5839 5839 5840 5841 5841 5842 5843 5843 5844 5844 5845 5845 5844 5843 5843 5842 5841 5841 5840 5839 5839 5838 5837 5837 5836 5836 5836 5836 5836 5837 5837 5838 5838 5838 5839 5840 5840 5841 5841
5836 5835 5835 5835 5835 5834 5835 5836 5837 5837 5838 5839 5839 5840 5840 5840 5839 5839 5838 5838 5837 5836 5836 5835 5834 5833 5833 5832 5831 5831 5831 5831 5832 5832 5832 5832 5833 5833 5833 5834 5835 5835 5836
5831 5830 5830 5830 5830 5831 5831 5831 5832 5832 5832 5833 5834 5834 5834 5835 5834 5834 5833 5833 5832 5831 5831 5830 5829 5828 5828 5827 5826 5826 5826 5826 5826 5826 5826 5826 5827 5827 5827 5828 5828 5829 5830
5825 5825 5825 5825 5825 5826 5826 5826 5826 5827 5827 5828 5828 5829 5829 5829 5829 5828 5828 5827 5826 5826 5825 5824 5823 5823 5822 5821 5821 5820 5820 5820 5820 5820 5820 5820 5821 5821 5821 5822 5822 5823 5823
5819 5819 5820 5819 5820 5820 5820 5820 5820 5821 5821 5822 5822 5822 5823 5823 5823 5823 5823 5822 5821 5820 5819 5818 5818 5817 5816 5816 5815 5815 5814 5814 5814 5814 5814 5814 5814 5814 5815 5815 5816 5816 5817
5814 5813 5814 5814 5813 5813 5814 5814 5814 5815 5815 5816 5816 5816 5816 5816 5817 5817 5817 5816 5815 5815 5814 5813 5812 5812 5811 5810 5809 5808 5808 5808 5807 5807 5807 5807 5807 5807 5808 5808 5809 5809 5810
5807 5807 5807 5807 5807 5807 5807 5807 5808 5808 5809 5809 5810 5810 5810 5810 5810 5810 5810 5810 5809 5809 5808 5808 5807 5806 5805 5804 5803 5802 5802 5801 5801 5800 5800 5800 5800 5801 5801 5801 5801 5802 5803
5800 5800 5801 5800 5800 5800 5800 5800 5800 5801 5802 5802 5803 5803 5804 5804 5804 5804 5804 5803 5803 5803 5803 5802 5801 5800 5799 5798 5797 5797 5796 5795 5794 5794 5793 5793 5793 5793 5794 5794 5794 5794 5795
5793 5793 5793 5794 5794 5794 5793 5793 5793 5794 5795 5795 5796 5796 5797 5797 5797 5797 5797 5797 5797 5797 5797 5796 5795 5794 5793 5792 5791 5790 5789 5789 5788 5787 5786 5786 5786 5786 5786 5786 5787 5787 5787
5786 5786 5786 5787 5787 5787 5787 5787 5787 5787 5788 5789 5789 5790 5790 5790 5790 5790 5791 5791 5791 5791 5790 5790 5789 5788 5787 5786 5785 5784 5783 5782 5781 5781 5780 5779 5779 5779 5779 5778 5779 5779 5779
5779 5780 5780 5780 5780 5780 5780 5780 5780 5780 5781 5782 5782 5783 5783 5784 5784 5784 5784 5784 5784 5784 5784 5783 5782 5781 5780 5779 5778 5777 5776 5776 5775 5774 5773 5772 5771 5771 5771 5771 5771 5771 5771
5773 5773 5773 5773 5773 5774 5774 5773 5774 5774 5774 5774 5775 5775 5776 5777 5777 5777 5777 5777 5777 5777 5777 5776 5775 5774 5773 5773 5772 5771 5770 5769 5768 5767 5766 5766 5765 5764 5764 5764 5764 5764 5764
5766 5766 5766 5766 5766 5767 5767 5767 5767 5767 5767 5767 5768 5768 5769 5770 5770 5770 5770 5770 5770 5770 5770 5769 5768 5767 5766 5765 5764 5764 5763 5762 5761 5761 5760 5759 5758 5758 5757 5757 5757 5756 5756
5759 5760 5760 5760 5760 5760 5760 5760 5760 5760 5760 5760 5760 5761 5762 5762 5763 5763 5763 5763 5763 5763 5762 5762 5760 5759 5759 5758 5758 5757 5757 5756 5755 5755 5754 5753 5752 5751 5750 5750 5749 5749 5748
5754 5754 5754 5754 5754 5754 5754 5754 5754 5753 5753 5753 5753 5754 5754 5755 5755 5756 5756 5756 5755 5755 5755 5754 5753 5752 5752 5752 5751 5750 5750 5749 5749 5748 5747 5746 5745 5744 5743 5743 5742 5741 5741
5748 5748 5748 5748 5748 5748 5748 5748 5747 5747 5747 5747 5747 5747 5747 5748 5748 5748 5748 5748 5748 5748 5747 5747 5747 5746 5746 5745 5745 5744 5743 5743 5742 5741 5740 5739 5739 5737 5736 5735 5734 5734 5733
5742 5741 5741 5741 5741 5741 5741 5741 5741 5740 5740 5740 5740 5740 5740 5740 5741 5741 5741 5741 5740 5740 5740 5740 5740 5740 5739 5739 5738 5738 5737 5736 5735 5734 5733 5732 5731 5730 5729 5728 5727 5726 5725
5735 5735 5735 5735 5734 5734 5734 5734 5734 5734 5734 5734 5734 5733 5733 5733 5733 5733 5733 5733 5733 5733 5733 5733 5733 5733 5732 5732 5731 5730 5729 5729 5728 5727 5726 5725 5724 5723 5722 5721 5719 5719 5718
5728 5727 5727 5727 5727 5727 5727 5727 5727 5727 5727 5727 5727 5726 5726 5726 5726 5726 5726 5725 5725 5725 5725 5726 5726 5726 5725 5725 5724 5723 5722 5721 5721 5720 5719 5718 5717 5715 5714 5713 5712 5711 5710
5721 5721 5720 5720 5720 5720 5720 5720 5720 5720 5719 5719 5719 5719 5719 5719 5719 5718 5718 5718 5718 5718 5717 5718 5718 5718 5718 5717 5717 5716 5715 5714 5713 5712 5711 5710 5709 5708 5707 5706 5705 5704 5703